Stations météo

réclame
Mon MeteoGroup
Isle Of Portland, Grande-Bretagne (3857): Température de l'air & dewpoint: 21.05.2018 06:00:00 - 27.05.2018 06:00:00 (BST)Isle Of Portland, Grande-Bretagne (3857): Vitesse du vent & gusts: 21.05.2018 06:00:00 - 27.05.2018 06:00:00 (BST)Isle Of Portland, Grande-Bretagne (3857): Direction du vent: 21.05.2018 06:00:00 - 27.05.2018 06:00:00 (BST)Isle Of Portland, Grande-Bretagne (3857): reduced air pressure: 21.05.2018 06:00:00 - 27.05.2018 06:00:00 (BST)Isle Of Portland, Grande-Bretagne (3857): visibility: 21.05.2018 06:00:00 - 27.05.2018 06:00:00 (BST)Isle Of Portland, Grande-Bretagne (3857): Quantités de précipitations: 21.05.2018 06:00:00 - 27.05.2018 06:00:00 (BST)
Date & Time tt [°C] td [°C] ff [km/h] ff [knt] fx [km/h] fx [knt] dd ppp [hPa] vv [km] rr [mm]
27.05.2018 06:00:00 13,6 13,0 21 11 - - E 1014,3 10 0,4
27.05.2018 05:00:00 13,3 12,1 26 14 - - ESE 1013,9 15 0,0
27.05.2018 04:00:00 13,4 11,8 29 16 - - E 1013,6 12 0,0
27.05.2018 03:00:00 13,2 11,7 24 13 - - E 1013,5 10 0,0
27.05.2018 02:00:00 14,0 12,3 34 18 - - ESE 1013,5 9 0,0
27.05.2018 01:00:00 14,6 13,2 37 20 55 30 E 1013,3 8 0,0
27.05.2018 00:00:00 15,6 13,5 41 22 57 31 E 1013,3 8 0,0
26.05.2018 23:00:00 17,8 14,3 42 23 54 29 E 1013,5 9 0,0
26.05.2018 22:00:00 15,0 13,7 22 12 - - E 1013,8 8 0,0
26.05.2018 21:00:00 15,0 13,4 22 12 - - E 1013,8 9 0,0
26.05.2018 20:00:00 15,7 13,1 21 11 - - E 1013,6 10 0,0
26.05.2018 19:00:00 18,4 14,7 29 16 - - ENE 1013,3 14 0,2
26.05.2018 18:00:00 18,1 14,1 26 14 - - E 1013,8 15 0,0
26.05.2018 17:00:00 21,1 15,1 28 15 - - ENE 1014,0 28 0,0
26.05.2018 16:00:00 21,8 15,5 29 16 - - ENE 1014,2 23 0,0
26.05.2018 15:00:00 22,6 17,0 26 14 - - ENE 1015,0 10 0,0
26.05.2018 14:00:00 21,2 15,8 24 13 - - ENE 1015,8 11 0,0
26.05.2018 13:00:00 21,3 16,0 28 15 - - NE 1016,6 11 0,0
26.05.2018 12:00:00 19,3 15,0 26 14 - - NE 1017,1 10 0,0
26.05.2018 11:00:00 17,4 14,9 29 16 - - NE 1017,6 7 0,0
26.05.2018 10:00:00 15,5 14,2 29 16 - - NE 1017,7 4,2 0,0
26.05.2018 09:00:00 14,8 13,8 29 16 - - NE 1017,7 3,5 0,0
26.05.2018 08:00:00 14,5 13,8 22 12 - - NE 1018,3 3,0 0,6
26.05.2018 07:00:00 14,3 13,6 24 13 - - NE 1018,6 2,6 0,4
26.05.2018 06:00:00 13,9 13,0 24 13 - - NE 1018,3 3,0 0,0
26.05.2018 05:00:00 13,6 12,6 22 12 - - NE 1018,3 3,4 0,0
26.05.2018 04:00:00 13,7 12,6 21 11 - - NE 1018,4 4,0 0,0
26.05.2018 03:00:00 13,7 12,6 16 9 - - NE 1018,5 5 0,0
26.05.2018 02:00:00 13,7 12,8 15 8 - - NE 1018,7 5 0,0
26.05.2018 01:00:00 12,4 11,7 15 8 - - E 1019,1 3,6 0,0
26.05.2018 00:00:00 13,4 12,4 11 6 - - NE 1019,1 8 0,0
25.05.2018 23:00:00 12,9 12,0 9 5 - - ENE 1018,8 8 0,0
25.05.2018 22:00:00 12,2 10,8 9 5 - - ENE 1018,8 5 0,0
25.05.2018 21:00:00 12,9 11,6 9 5 - - NE 1018,3 7 0,0
25.05.2018 20:00:00 13,3 12,0 8 4 - - E 1018,1 6 0,0
25.05.2018 19:00:00 13,8 12,1 8 4 - - SSE 1017,8 6 0,0
25.05.2018 18:00:00 14,2 12,3 9 5 - - SE 1017,6 6 0,0
25.05.2018 17:00:00 15,8 12,3 8 4 - - S 1017,9 9 0,0
25.05.2018 16:00:00 16,6 12,4 9 5 - - SSW 1017,9 8 0,0
25.05.2018 15:00:00 17,4 13,4 11 6 - - SW 1018,0 14 0,0
25.05.2018 14:00:00 17,2 12,4 8 4 - - W 1018,0 13 0,0
25.05.2018 13:00:00 17,1 13,1 8 4 - - WSW 1018,2 8 0,0
25.05.2018 12:00:00 17,4 13,5 5 3 - - SSW 1018,3 11 0,0
25.05.2018 11:00:00 17,3 13,4 5 3 - - NW 1018,2 12 0,0
25.05.2018 10:00:00 16,7 12,7 4 2 - - NNW 1018,4 15 0,0
25.05.2018 09:00:00 15,8 12,6 4 2 - - NE 1018,4 11 0,0
25.05.2018 08:00:00 15,8 12,4 9 5 - - NE 1018,1 15 0,0
25.05.2018 07:00:00 14,7 11,9 11 6 - - NE 1017,8 12 0,0
25.05.2018 06:00:00 14,3 12,2 15 8 - - NE 1017,8 9 0,0
25.05.2018 05:00:00 13,5 12,5 11 6 - - N 1017,9 6 0,0
25.05.2018 04:00:00 12,8 12,1 9 5 - - NNW 1018,0 4,2 0,0
25.05.2018 03:00:00 12,8 12,0 11 6 - - NW 1017,9 2,9 0,0
25.05.2018 02:00:00 13,9 12,7 8 4 - - N 1018,2 7 0,0
25.05.2018 01:00:00 14,5 13,0 13 7 - - NNE 1018,5 10 0,0
25.05.2018 00:00:00 13,7 12,6 8 4 - - N 1018,6 5 0,0
24.05.2018 23:00:00 12,9 11,8 8 4 - - NNW 1018,8 3,4 0,0
24.05.2018 22:00:00 13,3 12,2 9 5 - - NNW 1019,1 5 0,0
24.05.2018 21:00:00 13,5 11,8 8 4 - - N 1018,9 6 0,0
24.05.2018 20:00:00 14,2 12,1 8 4 - - N 1018,7 7 0,0
24.05.2018 19:00:00 14,2 12,1 8 4 - - NNE 1018,7 9 0,0
24.05.2018 18:00:00 14,3 12,0 18 10 - - NE 1018,8 8 0,0
24.05.2018 17:00:00 14,6 12,1 22 12 - - NE 1018,6 9 0,0
24.05.2018 16:00:00 14,9 12,6 15 8 - - NE 1019,0 9 0,0
24.05.2018 15:00:00 15,1 12,6 15 8 - - NNE 1019,4 8 0,0
24.05.2018 14:00:00 15,6 12,9 16 9 - - ENE 1019,7 10 0,0
24.05.2018 13:00:00 14,7 11,9 11 6 - - NE 1019,9 11 0,0
24.05.2018 12:00:00 14,3 11,4 15 8 - - NNE 1019,9 12 0,0
24.05.2018 11:00:00 14,0 11,2 16 9 - - NE 1020,2 11 0,0
24.05.2018 10:00:00 13,1 10,7 21 11 - - NE 1020,3 9 0,0
24.05.2018 09:00:00 13,3 10,7 22 12 - - NE 1020,4 11 0,0
24.05.2018 08:00:00 13,1 10,4 22 12 - - NE 1020,1 11 0,0
24.05.2018 07:00:00 11,7 9,5 29 16 - - NE 1020,1 11 0,0
24.05.2018 06:00:00 11,9 9,3 24 13 - - NE 1020,3 14 0,0
24.05.2018 05:00:00 11,6 9,0 21 11 - - NE 1020,1 12 0,0
24.05.2018 04:00:00 11,9 9,3 18 10 - - NNE 1020,5 15 0,0
24.05.2018 03:00:00 12,6 9,6 29 16 - - ENE 1020,8 14 0,0
24.05.2018 02:00:00 13,4 10,0 24 13 - - ENE 1021,1 17 0,0
24.05.2018 01:00:00 14,2 10,6 22 12 - - ENE 1021,3 15 0,0
24.05.2018 00:00:00 15,0 11,9 13 7 - - ENE 1021,3 17 0,0
23.05.2018 23:00:00 14,9 10,4 13 7 - - ENE 1021,7 14 0,0
23.05.2018 22:00:00 15,6 10,4 13 7 - - E 1021,7 15 0,0
23.05.2018 21:00:00 15,4 10,7 9 5 - - E 1021,4 14 0,0
23.05.2018 20:00:00 16,1 10,9 11 6 - - E 1021,4 19 0,0
23.05.2018 19:00:00 18,2 11,2 11 6 - - E 1020,9 29 0,0
23.05.2018 18:00:00 20,1 11,2 15 8 - - ENE 1020,9 40 0,0
23.05.2018 17:00:00 17,5 11,0 9 5 - - NW 1021,3 12 0,0
23.05.2018 16:00:00 16,8 11,2 11 6 - - NNW 1021,7 13 0,0
23.05.2018 15:00:00 15,2 11,3 11 6 - - WNW 1022,1 10 0,0
23.05.2018 14:00:00 15,3 10,6 11 6 - - W 1022,5 9 0,0
23.05.2018 13:00:00 19,2 10,9 15 8 - - NE 1022,7 17 0,0
23.05.2018 12:00:00 18,0 11,2 18 10 - - ENE 1022,9 14 0,0
23.05.2018 11:00:00 16,4 10,2 18 10 - - NNE 1022,9 13 0,0
23.05.2018 10:00:00 15,0 9,5 16 9 - - NNE 1023,0 14 0,0
23.05.2018 09:00:00 13,7 9,1 21 11 - - NNE 1022,8 13 0,0
23.05.2018 08:00:00 12,3 9,1 18 10 - - NNE 1022,4 11 0,0
23.05.2018 07:00:00 11,0 8,1 15 8 - - NNE 1022,3 12 0,0
23.05.2018 06:00:00 10,7 8,1 18 10 - - NE 1021,4 13 0,0
23.05.2018 05:00:00 11,3 8,0 29 16 52 28 NE 1020,5 18 0,0
23.05.2018 04:00:00 12,2 7,8 31 17 50 27 NE 1020,3 22 0,0
23.05.2018 03:00:00 12,7 7,3 34 18 46 25 NE 1020,3 35 0,0
23.05.2018 02:00:00 13,5 7,4 26 14 - - NE 1020,4 35 0,0
23.05.2018 01:00:00 14,6 7,7 31 17 - - NE 1020,3 40 0,0
23.05.2018 00:00:00 15,8 9,4 26 14 - - NE 1020,2 40 0,0
22.05.2018 23:00:00 17,3 9,9 26 14 - - NE 1019,7 45 0,0
22.05.2018 22:00:00 18,2 10,9 21 11 - - NNE 1019,2 40 0,0
22.05.2018 21:00:00 18,9 11,1 18 10 - - NNE 1018,3 29 0,0
22.05.2018 20:00:00 19,8 11,4 15 8 - - NNE 1017,8 27 0,0
22.05.2018 19:00:00 20,2 11,1 16 9 - - NE 1017,4 35 0,0
22.05.2018 18:00:00 21,1 10,7 16 9 - - NNE 1017,0 30 0,0
22.05.2018 17:00:00 20,9 10,7 8 4 - - NNW 1016,8 24 0,0
22.05.2018 16:00:00 19,0 11,4 9 5 - - NW 1017,0 20 0,0
22.05.2018 15:00:00 18,6 10,3 9 5 - - WNW 1017,2 27 0,0
22.05.2018 14:00:00 20,3 11,5 16 9 - - N 1017,2 30 0,0
22.05.2018 13:00:00 19,3 11,3 11 6 - - N 1017,3 20 0,0
22.05.2018 12:00:00 18,2 10,6 22 12 - - NNE 1017,1 22 0,0
22.05.2018 11:00:00 17,2 11,4 15 8 - - N 1016,8 19 0,0
22.05.2018 10:00:00 15,2 10,7 8 4 - - WNW 1016,6 19 0,0
22.05.2018 09:00:00 14,9 10,3 26 14 46 25 NE 1016,0 18 0,0
22.05.2018 08:00:00 14,1 9,5 34 18 46 25 NNE 1015,5 28 0,0
22.05.2018 07:00:00 13,3 9,3 31 17 - - NNE 1015,3 22 0,0
22.05.2018 06:00:00 12,7 9,5 26 14 - - N 1015,2 15 0,0
22.05.2018 05:00:00 13,2 9,8 29 16 - - N 1014,8 13 0,0
22.05.2018 04:00:00 13,9 10,3 29 16 - - N 1014,8 14 0,0
22.05.2018 03:00:00 14,5 10,6 28 15 - - N 1014,8 14 0,0
22.05.2018 02:00:00 15,2 10,5 34 18 46 25 N 1014,7 20 0,0
22.05.2018 01:00:00 15,7 10,1 34 18 - - N 1014,7 24 0,0
22.05.2018 00:00:00 14,8 10,8 16 9 - - N 1015,1 21 0,0
21.05.2018 23:00:00 14,0 12,5 21 11 - - NNW 1015,3 10 0,0
21.05.2018 22:00:00 13,4 11,8 15 8 - - NNW 1015,5 9 0,0
21.05.2018 21:00:00 14,0 12,1 11 6 - - NW 1015,1 7 2,0
21.05.2018 20:00:00 15,1 9,3 9 5 - - NW 1015,4 15 0,0
21.05.2018 19:00:00 15,6 10,8 16 9 - - ENE 1015,5 16 0,0
21.05.2018 18:00:00 16,1 11,4 13 7 - - NW 1014,7 13 0,0
21.05.2018 17:00:00 16,5 10,4 5 3 - - SSW 1014,7 16 0,0
21.05.2018 16:00:00 16,1 9,8 8 4 - - SSW 1015,1 16 0,0
21.05.2018 15:00:00 16,8 11,1 9 5 - - W 1015,5 14 0,0
21.05.2018 14:00:00 17,1 10,9 9 5 - - S 1015,6 17 0,0
21.05.2018 13:00:00 17,9 9,8 11 6 - - SE 1015,6 18 0,0
21.05.2018 12:00:00 20,0 9,5 16 9 - - NE 1015,9 23 0,0
21.05.2018 11:00:00 19,0 8,8 18 10 - - NE 1015,9 30 0,0
21.05.2018 10:00:00 18,0 10,1 16 9 - - NE 1016,3 29 0,0
21.05.2018 09:00:00 15,7 8,5 22 12 - - ENE 1016,5 18 0,0
21.05.2018 08:00:00 14,2 8,2 21 11 - - ENE 1016,6 16 0,0
21.05.2018 07:00:00 13,2 8,5 16 9 - - ENE 1016,7 17 0,0
21.05.2018 06:00:00 11,5 8,5 21 11 - - ENE 1016,7 10 0,0

tt = Température de l'air
td = dewpoint
ff = Vitesse du vent
fx = gusts
dd = Direction du vent
ppp = reduced air pressure
vv = visibility
rr = Quantités de précipitations

stations d'obs. à proximité